Дата Пункты Температура Давл., мм. Влажн., % Ветер Погодные явления
Воздуха Воды Направл. Скорость
18.09.14 02:00 Одесса 21.0 21.0 763 44 Пн-С 5 15 часов
18.09.14 11:00 Одесса 19.0 21.0 763 51 Пн-С 6 12 часов
18.09.14 08:00 Одесса 16.0 21.0 763 60 Пн-С 7 09 часов
18.09.14 05:00 Одесса 16.0 21.0 762 66 Пн-С 8 06 часов
18.09.14 02:00 Одесса 18.0 21.0 761 62 Пн-С 9 03 часа
17.09.14 08:00 Одесса 21.0 21.0 761 56 Пн-С 6 21 час
17.09.14 05:00 Одесса 22.0 21.0 761 50 Пн-С 4 18 часов
17.09.14 02:00 Одесса 22.0 21.0 761 52 С 4 15 часов
17.09.14 11:00 Одесса 20.0 21.0 762 61 Пн-С 6 12 часов
17.09.14 08:00 Одесса 16.0 21.0 762 70 Пн 5 09 часов
17.09.14 05:00 Одесса 15.0 21.0 761 72 Пн-С 6 06 часов
17.09.14 02:00 Одесса 17.0 21.0 761 69 Пн 5 03 часа
16.09.14 08:00 Одесса 21.0 22.0 761 51 Пн 6 21 час
16.09.14 05:00 Одесса 22.0 22.0 760 42 Пн-С 8 18 часов
16.09.14 02:00 Одесса 21.0 22.0 761 43 Пн-С 5 15 часов
16.09.14 11:00 Одесса 19.0 22.0 761 52 Пн-С 6 12 часов
16.09.14 08:00 Одесса 15.0 22.0 761 67 Пн-С 8 09 часов
16.09.14 05:00 Одесса 16.0 22.0 761 69 Пн-С 8 06 часов
16.09.14 02:00 Одесса 17.0 22.0 761 65 Пн-С 6 03 часа
15.09.14 08:00 Одесса 23.0 22.0 760 47 Пн-С 10 21 час
Количество строк
521 522 523 524 525 526 527 528 529 530
Page 528 of 530